Regional Weather Roundup
Issued by NWS Cleveland, OH

Home | Current Version | Previous Version | Graphics & Text | Print | Product List | Glossary On
Versions: 1 2 3 4 5 6 7 8 9 10 11 12 13 14 15 16 17 18 19 20 21 22 23 24 25 26 27 28 29 30 31 32 33 34 35 36 37 38 39 40 41 42 43 44 45 46 47 48 49 50
000
ASUS41 KCLE 310302
RWRCLE
OHIO REGIONAL WEATHER ROUNDUP
NATIONAL WEATHER SERVICE CLEVELAND, OH
1100 PM EDT THU OCT 30 2014

NOTE: "FAIR" INDICATES FEW OR NO CLOUDS BELOW 12,000 FEET WITH NO
SIGNIFICANT WEATHER AND/OR OBSTRUCTIONS TO VISIBILITY.

OHZ001>008-015>018-024>027-034-035-043-044-310400-
   NORTHWEST OHIO

CITY           SKY/WX    TMP DP  RH WIND       PRES   REMARKS
DEFIANCE       CLOUDY    45  36  70 SW3       30.05S
FINDLAY        CLOUDY    45  37  73 S3        30.04F
TOLEDO EXPRESS CLOUDY    45  35  68 SW5       30.04S
TOLEDO EXEC    CLOUDY    46  36  68 SW3       30.05S
LIMA           CLOUDY    44  37  76 S5        30.04F
$$

OHZ009>014-019>023-028>033-038-089-310400-
   NORTHEAST OHIO

CITY           SKY/WX    TMP DP  RH WIND       PRES   REMARKS
CLE-HOPKINS    CLOUDY    43  37  79 S6        30.07F
CLE-LAKEFRONT    N/A    N/A N/A N/A MISG        N/A
CUY CO. ARPT   MOCLDY    39  37  93 S7        30.05F
LORAIN-ELYRIA  CLOUDY    42  38  85 CALM      30.05F
ASHTABULA      MOCLDY    38  36  92 CALM      30.05F
AKRON-CANTON   CLOUDY    45  38  76 CALM      30.05S
WOOSTER        CLOUDY    45  37  73 CALM      30.05F
MANSFIELD      CLOUDY    43  36  76 SE5       30.04F
YOUNGSTOWN     CLOUDY    44  37  76 NW3       30.05S
$$

OHZ042-051>053-060>062-070>072-077>081-310400-
  SOUTHWEST OHIO

CITY           SKY/WX    TMP DP  RH WIND       PRES   REMARKS
CINC-COVINGTON NOT AVBL
CINC-LUNKEN    CLEAR     39  35  86 CALM      30.08S
HAMILTON       PTCLDY    37  34  89 CALM      30.07S
DAYTON         MOCLDY    41  33  73 NE3       30.07S
WRIGHT-PAT AFB PTCLDY    38  33  84 E1        30.06F
DAYTON GENERAL CLEAR     38  33  82 E7        30.05S
WILMINGTON     PTCLDY    39  32  76 E5        30.06S
$$

OHZ036-037-039>041-045>050-054>059-063>069-073>076-082>088-310400-
  CENTRAL AND SOUTHEAST OHIO

CITY           SKY/WX    TMP DP  RH WIND       PRES   REMARKS
COLUMBUS       CLOUDY    47  34  60 CALM      30.06S
OSU AIRPORT    CLOUDY    45  34  65 CALM      30.06S
BOLTON FIELD   CLOUDY    40  37  89 SW3       30.06S
RICKENBACK AFB CLEAR     42  34  73 W5        30.06S
NEWARK         CLOUDY    45  38  76 CALM      30.06S
MARION         CLOUDY    45  37  73 SW3       30.05F
LANCASTER      PTCLDY    40  34  79 CALM      30.06F
ZANESVILLE     CLOUDY    46  32  58 CALM      30.06F
NEW PHILLY     CLOUDY    46  39  76 CALM      30.06F
$$



USA.gov is the U.S. government's official web portal to all federal, state and local government web resources and services.